Location: Poughquag
(41.6090°N, 73.6820°W)
Time: 09:33:54
(UTC-05:00)

Vanguard 1 - Pass Details

Date: 01 December 2023
Orbit: 653 x 3826 km, 34.3° (Epoch: 25 February)

Event Time Altitude Azimuth Distance (km) Brightness Sun altitude
Rises 17:09:50 0° 216° (SW) 5,564 15.0 -8.3°
Reaches altitude 10° 17:13:11 10° 209° (SSW) 4,933 14.4 -8.9°
Maximum altitude 17:27:29 44° 143° (SE) 4,061 13.0 -11.4°
Enters shadow 17:45:13 15° 85° (E) 6,464 13.6 -14.6°
Drops below altitude 10° 17:47:58 10° 82° (E) 6,934 - -15.1°
Sets 17:53:47 0° 77° (ENE) 7,933 - -16.1°
